Weather in Lesosibirsk

Russia / Krasnoyarsk Krai     58°13′18″N   92°30′13″E
temp.,
°C
wind,
m/s
gust,
m/s
humid.,
%
clouds,
%
prec.,
mm/h
press.,
hPa
HPBL,
m
2 august, mon
mon201:00+14ese119698 0.6 100910
04:00+13ene1196100 0.0 100811
07:00+15ese119179 0.1 100898
10:00+19e217126 0.3 1007543
13:00+23ssw234814 1.3 10061609
16:00+24s1338100 0.0 10052607
19:00+19se246444 0.0 1005174
22:00+13sse27973 0.2 1006160
3 august, tue
tue301:00+11ese22970 0.2 100622
04:00+10ese22970 0.0 100524
07:00+13ese2591100 0.0 1006166
10:00+19se346726 0.0 1006584
13:00+22sse335597 0.0 10061296
16:00+23sw124927 0.0 10061231
19:00+22ene116132 0.0 100622
22:00+16ese228425 0.0 100714
4 august, wed
wed401:00+14e119053 0.0 100811
04:00+13e11955 0.0 100811
07:00+17e12810 0.0 1009121
10:00+22ese2366100 0.1 1008784
13:00+26se1249100 0.3 10071753
16:00+27ssw1245100 0.0 10061823
19:00+23w2374100 0.1 100675
22:00+17nnw239699 2.8 100581
5 august, thu
thu501:00+16ne0098100 12.1 100617
04:00+16ene2398100 0.4 100595
07:00+16e1499100 2.1 1004179
10:00+17ne1296100 4.2 1005200
13:00+22nne127466 5.1 1004863
16:00+22ne128327 2.9 1003277
19:00+21wsw118867 4.7 100314
22:00+17e229445 2.9 100339
6 august, fri
fri601:00+15ne119489 3.1 100311
04:00+16ene119298 0.0 100311
07:00+16ne129227 0.0 100491
10:00+22ene12619 0.0 1003739
13:00+20n467178 0.4 1004477
16:00+24n345153 0.1 10031673
19:00+20ne24905 1.3 1004138
22:00+16ne119332 0.5 100411